OZ1IEP-5 Weather Reports


time (UTC)temp
C
wind
direction
speed
KPH
gust
KPH
rain 1hr
cm
rain 24hr
cm
rain mn
cm
humidity
%
barometer
mb
20260902083008 17 222 0.0 14.5 0.00 0.05 0.00 87 1013.5
20260902082006 17 191 0.0 19.3 0.00 0.05 0.00 89 1013.4
20260902081006 17 204 0.0 14.5 0.00 0.05 0.00 90 1013.5
20260902080008 17 198 0.0 14.5 0.00 0.05 0.00 90 1013.4
20260902075005 16 216 0.0 16.1 0.00 0.05 0.00 91 1013.3
20260902074006 16 213 0.0 11.3 0.00 0.05 0.00 92 1013.1
20260902073009 16 182 0.0 8.0 0.00 0.05 0.00 92 1013.1
20260902072005 16 179 0.0 4.8 0.00 0.05 0.00 92 1013.1
20260902071006 16 187 0.0 3.2 0.00 0.05 0.00 92 1013.1
20260902070008 16 182 0.0 4.8 0.00 0.05 0.00 93 1013.1
20260902065006 15 128 0.0 4.8 0.00 0.05 0.00 93 1013.1
20260902064005 15 164 0.0 9.7 0.00 0.05 0.00 93 1013.2
20260902063008 15 184 0.0 11.3 0.00 0.05 0.00 93 1013.1
20260902062006 15 185 0.0 4.8 0.00 0.05 0.00 93 1013.2
20260902061005 15 199 0.0 9.7 0.00 0.05 0.00 93 1013.1
20260902060008 15 213 0.0 4.8 0.00 0.05 0.00 93 1013.1
20260902055006 15 204 0.0 19.3 0.00 0.05 0.00 93 1013.1
20260902054005 15 191 0.0 20.9 0.00 0.05 0.00 93 1013.1
20260902053009 15 222 0.0 8.0 0.00 0.05 0.00 93 1013.0
20260902052006 14 221 1.6 9.7 0.00 0.05 0.00 93 1013.0
20260902051005 14 169 0.0 4.8 0.00 0.05 0.00 93 1013.0
20260902050009 14 217 0.0 3.2 0.00 0.05 0.00 93 1013.1
20260902045006 14 192 0.0 11.3 0.00 0.05 0.00 93 1013.0
20260902044006 14 207 0.0 9.7 0.00 0.05 0.00 93 1013.0
20260902043008 14 181 0.0 4.8 0.00 0.05 0.00 93 1013.1
20260902042006 13 150 0.0 3.2 0.00 0.05 0.00 92 1013.1
20260902041006 13 199 0.0 8.0 0.00 0.05 0.00 92 1013.1
20260902040010 13 162 0.0 4.8 0.00 0.05 0.00 93 1013.0
20260902035006 13 185 0.0 1.6 0.00 0.05 0.00 92 1013.1
20260902034006 13 172 0.0 1.6 0.00 0.05 0.00 92 1013.2
20260902033010 13 175 0.0 0.0 0.00 0.05 0.00 92 1013.3
20260902032006 12 191 0.0 1.6 0.00 0.05 0.00 92 1013.4
20260902031007 12 188 0.0 0.0 0.00 0.05 0.00 91 1013.5
20260902030008 12 181 0.0 3.2 0.00 0.05 0.00 91 1013.5
20260902025006 12 206 0.0 3.2 0.00 0.10 0.00 91 1013.5
20260902024006 12 210 0.0 3.2 0.00 0.10 0.00 91 1013.5
20260902023008 12 184 0.0 0.0 0.00 0.10 0.00 90 1013.4
20260902022005 13 222 0.0 1.6 0.00 0.10 0.00 90 1013.4
20260902021005 13 185 0.0 0.0 0.00 0.10 0.00 89 1013.4
20260902020008 13 206 0.0 3.2 0.00 0.10 0.00 89 1013.3
20260902015006 13 224 0.0 0.0 0.00 0.10 0.00 89 1013.3
20260902014006 13 189 0.0 0.0 0.00 0.10 0.00 89 1013.4
20260902013009 13 198 0.0 0.0 0.00 0.10 0.00 89 1013.4
20260902012006 14 230 0.0 4.8 0.00 0.10 0.00 89 1013.4
20260902011006 14 208 0.0 4.8 0.00 0.10 0.00 89 1013.4
20260902010009 14 224 0.0 4.8 0.00 0.10 0.00 89 1013.4
20260902005006 14 229 0.0 4.8 0.00 0.10 0.00 89 1013.4
20260902004006 14 227 0.0 8.0 0.00 0.10 0.00 89 1013.5
20260902003009 14 244 0.0 4.8 0.00 0.10 0.00 89 1013.5
20260902002005 14 230 0.0 4.8 0.00 0.10 0.00 89 1013.4
20260902001006 14 226 0.0 3.2 0.00 0.10 0.00 89 1013.5
20260902000008 14 226 0.0 4.8 0.00 0.10 0.00 89 1013.5
20260901235006 14 302 0.0 1.6 0.00 0.10 0.00 89 1013.6
20260901234006 14 300 0.0 9.7 0.00 0.10 0.00 89 1013.6
20260901233008 14 265 0.0 0.0 0.00 0.10 0.00 88 1013.6
20260901232006 14 253 0.0 8.0 0.00 0.10 0.00 88 1013.6
20260901231006 15 265 0.0 8.0 0.00 0.10 0.00 89 1013.6
20260901230008 15 276 0.0 3.2 0.00 0.10 0.00 89 1013.6
20260901225006 15 219 0.0 4.8 0.00 0.10 0.00 90 1013.4
20260901224006 15 222 0.0 9.7 0.05 0.10 0.00 90 1013.3
20260901223009 15 243 0.0 8.0 0.05 0.10 0.00 90 1013.2
20260901222006 15 201 0.0 11.3 0.05 0.10 0.00 90 1013.3
20260901221006 15 225 0.0 11.3 0.05 0.10 0.00 90 1013.1
20260901220008 16 214 0.0 3.2 0.05 0.10 0.00 89 1013.1
20260901215006 16 215 0.0 3.2 0.05 0.10 0.10 89 1013.2
20260901214006 16 237 0.0 1.6 0.03 0.08 0.08 89 1013.2
20260901213009 16 226 0.0 1.6 0.00 0.05 0.05 89 1013.0
20260901212006 16 219 0.0 1.6 0.00 0.05 0.05 89 1013.0
20260901211006 16 240 0.0 1.6 0.00 0.05 0.05 89 1013.0
20260901210009 16 247 0.0 0.0 0.00 0.05 0.05 89 1013.0
20260901205006 16 231 0.0 1.6 0.00 0.05 0.05 88 1013.0
20260901204006 16 213 0.0 0.0 0.00 0.05 0.05 87 1013.0
20260901203009 16 288 0.0 0.0 0.00 0.05 0.05 87 1013.0
20260901202006 16 293 0.0 1.6 0.00 0.05 0.05 87 1012.9
20260901201005 16 303 0.0 1.6 0.00 0.05 0.05 87 1012.9
20260901200009 16 304 0.0 0.0 0.00 0.05 0.05 88 1012.8
20260901195006 16 290 0.0 4.8 0.00 0.05 0.05 87 1012.6
20260901194006 16 307 0.0 0.0 0.00 0.05 0.05 88 1012.6
20260901193009 16 225 0.0 0.0 0.00 0.05 0.05 88 1012.5
20260901192006 17 243 0.0 0.0 0.00 0.05 0.05 88 1012.5
20260901191006 17 257 0.0 0.0 0.00 0.05 0.05 87 1012.5
20260901190020 17 237 0.0 3.2 0.00 0.05 0.05 87 1012.4
20260901185005 17 223 0.0 9.7 0.00 0.05 0.05 86 1012.3
20260901184005 17 243 0.0 8.0 0.00 0.05 0.05 85 1012.1
20260901183009 17 216 0.0 4.8 0.00 0.05 0.05 84 1012.0
20260901182006 17 228 0.0 14.5 0.00 0.05 0.05 83 1011.9
20260901181005 17 238 0.0 8.0 0.00 0.05 0.05 82 1011.9
20260901180008 17 221 0.0 4.8 0.00 0.05 0.05 81 1011.8
20260901175006 17 228 0.0 4.8 0.00 0.05 0.05 82 1011.8
20260901174007 18 234 0.0 3.2 0.00 0.05 0.05 82 1011.6
20260901173008 18 217 0.0 1.6 0.00 0.05 0.05 82 1011.5
20260901172006 18 226 0.0 4.8 0.00 0.05 0.05 81 1011.5
20260901171006 18 249 0.0 3.2 0.00 0.05 0.05 80 1011.5
20260901170008 18 217 0.0 4.8 0.00 0.05 0.05 79 1011.4
20260901165006 18 235 0.0 4.8 0.00 0.05 0.05 80 1011.4
20260901164005 18 224 0.0 3.2 0.00 0.05 0.05 80 1011.4
20260901163008 19 243 0.0 4.8 0.00 0.05 0.05 79 1011.4
20260901162005 19 238 0.0 4.8 0.00 0.05 0.05 80 1011.3
20260901161005 19 238 0.0 9.7 0.00 0.05 0.05 82 1011.3
20260901160008 18 227 0.0 11.3 0.00 0.05 0.05 82 1011.2
20260901155006 18 233 0.0 11.3 0.00 0.05 0.05 80 1011.1
20260901154005 18 249 0.0 11.3 0.00 0.05 0.05 78 1011.1
20260901153008 18 220 0.0 14.5 0.00 0.08 0.05 78 1011.0
20260901152006 19 190 0.0 8.0 0.00 0.18 0.05 78 1010.9
20260901151005 19 228 0.0 9.7 0.00 0.20 0.05 78 1010.9
20260901150008 20 211 0.0 9.7 0.00 0.23 0.05 79 1010.9
20260901145005 20 234 1.6 9.7 0.00 0.30 0.05 77 1010.9
20260901144005 20 228 0.0 14.5 0.00 0.30 0.05 78 1010.9
20260901143008 20 225 0.0 1.6 0.00 0.30 0.05 77 1010.9
20260901142006 20 239 0.0 8.0 0.00 0.30 0.05 76 1010.9
20260901141006 20 281 0.0 8.0 0.00 0.30 0.05 77 1010.9
20260901140008 20 305 0.0 4.8 0.00 0.30 0.05 77 1010.9
20260901135006 20 264 0.0 11.3 0.00 0.30 0.05 78 1010.9
20260901134005 20 283 0.0 4.8 0.00 0.30 0.05 77 1010.9
20260901133008 20 285 0.0 4.8 0.00 0.30 0.05 77 1010.9
20260901132006 20 313 0.0 4.8 0.00 0.30 0.05 79 1010.9
20260901131006 20 267 0.0 3.2 0.00 0.30 0.05 80 1010.9
20260901130008 20 292 0.0 1.6 0.00 0.30 0.05 79 1010.9
20260901125005 20 294 0.0 4.8 0.00 0.30 0.05 81 1010.9
20260901124006 19 230 0.0 0.0 0.00 0.30 0.05 82 1010.8
20260901123008 19 282 0.0 8.0 0.00 0.30 0.05 82 1010.7
20260901122006 19 308 1.6 9.7 0.00 0.30 0.05 82 1010.7
20260901121006 19 302 1.6 11.3 0.00 0.30 0.05 82 1010.8
20260901120009 19 295 1.6 9.7 0.00 0.30 0.05 83 1010.9
20260901115006 19 302 0.0 8.0 0.00 0.30 0.05 84 1010.9
20260901114005 19 275 0.0 8.0 0.00 0.30 0.05 84 1010.9
20260901113008 19 308 1.6 8.0 0.00 0.30 0.05 84 1010.8
20260901112005 18 301 0.0 9.7 0.00 0.30 0.05 86 1010.7
20260901111006 18 279 0.0 8.0 0.00 0.30 0.05 86 1010.7
20260901110009 18 298 0.0 1.6 0.00 0.30 0.05 86 1010.7
20260901105005 18 288 0.0 4.8 0.00 0.30 0.05 85 1010.6
20260901104006 18 287 0.0 8.0 0.00 0.33 0.05 86 1010.5
20260901103008 18 254 0.0 4.8 0.03 0.33 0.05 87 1010.4
20260901102005 18 275 0.0 4.8 0.03 0.33 0.05 86 1010.4
20260901101006 18 227 0.0 1.6 0.03 0.33 0.05 87 1010.4
20260901100008 18 239 0.0 1.6 0.03 0.36 0.05 87 1010.3
20260901095006 18 272 0.0 0.0 0.03 0.41 0.05 87 1010.2
20260901094005 18 279 0.0 1.6 0.03 0.64 0.05 88 1010.2
20260901093009 18 223 0.0 8.0 0.00 0.64 0.05 89 1010.0
20260901092006 18 282 0.0 9.7 0.00 0.64 0.05 90 1009.9
20260901091006 17 237 1.6 9.7 0.00 0.64 0.05 91 1009.8
20260901090009 17 220 0.0 11.3 0.00 0.64 0.05 92 1009.8
20260901085006 17 287 0.0 1.6 0.00 0.64 0.05 92 1009.8
20260901084006 17 285 0.0 8.0 0.00 0.64 0.05 93 1009.8